Location: Ajisawe
(8.4333°N, 4.3833°E)
Time: 21:58:55
(UTC+00:00)

Vanguard 2 Rocket - Pass Details

Date: 20 April 2021
Orbit: 554 x 3326 km, 32.9° (Epoch: 16 May)

Event Time Altitude Azimuth Distance (km) Brightness Sun altitude
Rises 21:36:24 0° 294° (WNW) 6,004 11.7 -52.9°
Reaches altitude 10° 21:41:18 10° 288° (WNW) 4,524 10.8 -53.9°
Enters shadow 21:46:36 25° 274° (W) 2,933 9.6 -55.0°
Maximum altitude 21:51:38 40° 224° (SW) 1,870 - -56.0°
Drops below altitude 10° 21:57:46 10° 154° (SSE) 2,687 - -57.2°
Sets 21:59:59 0° 146° (SE) 3,392 - -57.7°
